| time (UTC) | temp F | wind direction | speed knots | gust knots | rain 1hr in | rain 24hr in | rain mn in | humidity % | barometer mb |
| 20260510113346 | 72 | 157 | 1.7 | 7.8 | 0.00 | 1.81 | 0.01 | 59 | 1013.8 |
| 20260510112831 | 72 | 170 | 5.2 | 7.8 | 0.00 | 1.81 | 0.01 | 59 | 1013.8 |
| 20260510112342 | 71 | 158 | 1.7 | 7.8 | 0.00 | 1.81 | 0.01 | 64 | 1013.8 |
| 20260510111847 | 70 | 102 | 0.9 | 7.8 | 0.00 | 1.81 | 0.01 | 70 | 1013.9 |
| 20260510111340 | 70 | 70 | 2.6 | 7.0 | 0.00 | 1.81 | 0.01 | 71 | 1014.0 |
| 20260510110847 | 70 | 76 | 2.6 | 7.0 | 0.00 | 1.81 | 0.01 | 71 | 1014.1 |
| 20260510110340 | 70 | 134 | 2.6 | 7.8 | 0.00 | 1.81 | 0.01 | 70 | 1014.2 |
| 20260510105839 | 70 | 80 | 1.7 | 7.8 | 0.00 | 1.89 | 0.01 | 70 | 1014.2 |
| 20260510105332 | 70 | 146 | 1.7 | 6.1 | 0.00 | 1.89 | 0.01 | 71 | 1014.2 |
| 20260510104838 | 70 | 124 | 3.5 | 7.0 | 0.00 | 1.89 | 0.01 | 70 | 1014.3 |
| 20260510104331 | 69 | 86 | 1.7 | 6.1 | 0.00 | 1.89 | 0.01 | 70 | 1014.3 |
| 20260510103836 | 69 | 105 | 0.0 | 4.3 | 0.00 | 1.89 | 0.01 | 71 | 1014.4 |
| 20260510103347 | 69 | 73 | 0.9 | 4.3 | 0.00 | 1.89 | 0.01 | 72 | 1014.4 |
| 20260510102833 | 69 | 136 | 0.0 | 7.0 | 0.00 | 1.89 | 0.01 | 72 | 1014.4 |
| 20260510102343 | 68 | 85 | 0.0 | 7.0 | 0.00 | 1.89 | 0.01 | 74 | 1014.5 |
| 20260510101846 | 68 | 62 | 2.6 | 6.1 | 0.00 | 1.89 | 0.01 | 74 | 1014.5 |
| 20260510101337 | 68 | 105 | 2.6 | 7.0 | 0.00 | 1.89 | 0.01 | 74 | 1014.7 |
| 20260510095836 | 68 | 152 | 2.6 | 7.8 | 0.00 | 1.89 | 0.01 | 71 | 1014.6 |
| 20260510095329 | 69 | 128 | 3.5 | 7.8 | 0.00 | 1.89 | 0.01 | 71 | 1014.6 |
| 20260510094837 | 69 | 171 | 1.7 | 4.3 | 0.00 | 1.89 | 0.01 | 69 | 1014.5 |
| 20260510094333 | 68 | 194 | 0.0 | 0.0 | 0.00 | 1.89 | 0.01 | 70 | 1014.6 |
| 20260510093331 | 68 | 218 | 0.0 | 0.0 | 0.00 | 1.89 | 0.01 | 72 | 1014.6 |
| 20260510092835 | 67 | 218 | 0.0 | 0.0 | 0.00 | 1.89 | 0.01 | 73 | 1014.7 |
| 20260510092349 | 67 | 218 | 0.0 | 0.0 | 0.00 | 1.89 | 0.01 | 74 | 1014.7 |
| 20260510091832 | 67 | 218 | 0.0 | 0.0 | 0.00 | 1.89 | 0.01 | 73 | 1014.7 |
| 20260510091343 | 67 | 218 | 0.0 | 0.0 | 0.00 | 1.89 | 0.01 | 74 | 1014.7 |
| 20260510090847 | 67 | 218 | 0.0 | 0.0 | 0.00 | 1.89 | 0.01 | 74 | 1014.6 |
| 20260510090341 | 67 | 219 | 0.0 | 0.0 | 0.00 | 1.89 | 0.01 | 74 | 1014.6 |
| 20260510085839 | 67 | 219 | 0.0 | 0.0 | 0.00 | 1.89 | 0.01 | 73 | 1014.5 |
| 20260510085330 | 67 | 218 | 0.0 | 0.0 | 0.00 | 1.89 | 0.01 | 73 | 1014.6 |
| 20260510084329 | 66 | 221 | 0.0 | 0.0 | 0.00 | 1.89 | 0.01 | 73 | 1014.6 |
| 20260510083329 | 66 | 227 | 0.0 | 0.0 | 0.00 | 1.89 | 0.01 | 73 | 1014.6 |
| 20260510082837 | 65 | 227 | 0.0 | 0.0 | 0.00 | 1.89 | 0.01 | 73 | 1014.6 |
| 20260510082330 | 65 | 227 | 0.0 | 0.0 | 0.00 | 1.89 | 0.01 | 74 | 1014.5 |
| 20260510081837 | 65 | 234 | 0.0 | 0.0 | 0.00 | 1.89 | 0.01 | 74 | 1014.6 |
| 20260510081347 | 65 | 234 | 0.0 | 0.0 | 0.00 | 1.89 | 0.01 | 74 | 1014.6 |
| 20260510080831 | 65 | 234 | 0.0 | 0.0 | 0.00 | 1.89 | 0.01 | 74 | 1014.7 |
| 20260510080341 | 65 | 234 | 0.0 | 0.0 | 0.00 | 1.89 | 0.01 | 74 | 1014.7 |
| 20260510075840 | 65 | 234 | 0.0 | 0.0 | 0.00 | 1.89 | 0.01 | 74 | 1014.7 |
| 20260510075331 | 65 | 234 | 0.0 | 0.0 | 0.00 | 1.89 | 0.01 | 74 | 1014.7 |
| 20260510074835 | 64 | 235 | 0.0 | 0.0 | 0.00 | 1.89 | 0.01 | 75 | 1014.6 |
| 20260510071832 | 62 | 235 | 0.0 | 0.0 | 0.00 | 1.89 | 0.01 | 83 | 1014.6 |
| 20260510070833 | 62 | 235 | 0.0 | 0.0 | 0.00 | 1.89 | 0.01 | 82 | 1014.5 |
| 20260510070348 | 62 | 235 | 0.0 | 0.0 | 0.00 | 1.89 | 0.01 | 81 | 1014.5 |
| 20260510065843 | 61 | 286 | 0.0 | 0.0 | 0.00 | 1.89 | 0.01 | 82 | 1014.4 |
| 20260510065337 | 61 | 286 | 0.0 | 0.0 | 0.00 | 1.89 | 0.01 | 83 | 1014.3 |
| 20260510064844 | 61 | 287 | 0.0 | 0.0 | 0.00 | 1.89 | 0.01 | 83 | 1014.3 |
| 20260510064336 | 60 | 287 | 0.0 | 0.0 | 0.00 | 1.89 | 0.01 | 84 | 1014.2 |
| 20260510063336 | 59 | 287 | 0.0 | 3.5 | 0.00 | 1.89 | 0.01 | 85 | 1014.2 |
| 20260510062845 | 59 | 288 | 1.7 | 4.3 | 0.00 | 1.89 | 0.01 | 86 | 1014.3 |
| 20260510062337 | 59 | 290 | 0.9 | 4.3 | 0.00 | 1.89 | 0.01 | 87 | 1014.2 |
| 20260510061843 | 59 | 290 | 0.0 | 2.6 | 0.00 | 1.89 | 0.01 | 88 | 1014.2 |
| 20260510061333 | 58 | 292 | 0.0 | 2.6 | 0.00 | 1.89 | 0.01 | 89 | 1014.2 |
| 20260510060839 | 58 | 291 | 0.0 | 1.7 | 0.00 | 1.89 | 0.01 | 90 | 1014.1 |
| 20260510060350 | 57 | 288 | 0.0 | 1.7 | 0.00 | 1.89 | 0.01 | 90 | 1014.1 |
| 20260510055847 | 57 | 281 | 0.0 | 4.3 | 0.00 | 1.89 | 0.01 | 90 | 1014.1 |
| 20260510055337 | 57 | 281 | 0.0 | 4.3 | 0.00 | 1.89 | 0.01 | 90 | 1014.1 |
| 20260510054845 | 57 | 277 | 2.6 | 4.3 | 0.00 | 1.89 | 0.01 | 90 | 1014.1 |
| 20260510053843 | 56 | 290 | 1.7 | 5.2 | 0.00 | 1.89 | 0.01 | 91 | 1014.0 |
| 20260510053333 | 56 | 298 | 2.6 | 5.2 | 0.00 | 1.89 | 0.01 | 91 | 1014.0 |
| 20260510052838 | 56 | 283 | 1.7 | 4.3 | 0.00 | 1.89 | 0.01 | 91 | 1013.9 |
| 20260510052350 | 56 | 285 | 1.7 | 4.3 | 0.00 | 1.89 | 0.01 | 91 | 1014.0 |
| 20260510051836 | 56 | 293 | 0.9 | 2.6 | 0.00 | 1.89 | 0.01 | 92 | 1014.1 |
| 20260510051347 | 56 | 301 | 1.7 | 2.6 | 0.00 | 1.89 | 0.01 | 92 | 1014.0 |
| 20260510050341 | 56 | 317 | 0.0 | 0.0 | 0.00 | 1.89 | 0.01 | 92 | 1013.9 |
| 20260510045836 | 56 | 317 | 0.0 | 0.0 | 0.00 | 1.89 | 0.01 | 92 | 1013.9 |
| 20260510045330 | 56 | 318 | 0.0 | 0.0 | 0.00 | 1.89 | 0.01 | 92 | 1013.8 |
| 20260510044838 | 56 | 318 | 0.0 | 0.0 | 0.00 | 1.89 | 0.01 | 92 | 1013.9 |
| 20260510044333 | 56 | 317 | 0.0 | 0.0 | 0.00 | 1.89 | 0.01 | 92 | 1013.9 |
| 20260510043839 | 56 | 317 | 0.0 | 0.0 | 0.00 | 1.89 | 0.01 | 92 | 1013.9 |
| 20260510043331 | 56 | 317 | 0.0 | 0.0 | 0.00 | 1.89 | 0.01 | 92 | 1013.9 |
| 20260510042839 | 56 | 317 | 0.0 | 0.0 | 0.00 | 1.89 | 0.01 | 93 | 1014.0 |
| 20260510042331 | 56 | 317 | 0.0 | 0.0 | 0.00 | 1.89 | 0.01 | 92 | 1013.9 |
| 20260510040834 | 56 | 317 | 0.0 | 0.0 | 0.00 | 1.89 | 0.01 | 92 | 1013.9 |
| 20260510035337 | 57 | 317 | 0.0 | 0.0 | 0.00 | 1.89 | 0.01 | 92 | 1013.8 |
| 20260510034841 | 57 | 317 | 0.0 | 0.0 | 0.00 | 1.89 | 0.01 | 92 | 1013.8 |
| 20260510034332 | 57 | 317 | 0.0 | 0.0 | 0.00 | 1.89 | 0.01 | 92 | 1013.8 |
| 20260510033839 | 57 | 317 | 0.0 | 0.0 | 0.00 | 1.89 | 0.01 | 92 | 1013.9 |
| 20260510033350 | 57 | 317 | 0.0 | 0.0 | 0.00 | 1.89 | 0.01 | 93 | 1013.9 |
| 20260510032836 | 57 | 317 | 0.0 | 0.0 | 0.00 | 1.89 | 0.01 | 92 | 1013.9 |
| 20260510032348 | 57 | 317 | 0.0 | 0.0 | 0.00 | 1.89 | 0.01 | 93 | 1013.9 |
| 20260510031831 | 57 | 317 | 0.0 | 0.0 | 0.00 | 1.89 | 0.01 | 93 | 1013.9 |
| 20260510030347 | 57 | 317 | 0.0 | 0.0 | 0.04 | 1.89 | 0.01 | 93 | 1014.1 |
| 20260510025844 | 57 | 317 | 0.0 | 0.0 | 0.04 | 1.89 | 0.01 | 93 | 1014.0 |
| 20260510025335 | 57 | 317 | 0.0 | 0.0 | 0.04 | 1.89 | 0.01 | 93 | 1014.0 |
| 20260510024843 | 57 | 317 | 0.0 | 0.0 | 0.04 | 1.89 | 0.01 | 93 | 1014.0 |
| 20260510024336 | 57 | 317 | 0.0 | 0.0 | 0.04 | 1.89 | 0.01 | 93 | 1014.0 |
| 20260510023337 | 57 | 317 | 0.0 | 0.0 | 0.04 | 1.89 | 0.01 | 93 | 1014.1 |
| 20260510022842 | 57 | 317 | 0.0 | 0.0 | 0.04 | 1.89 | 0.01 | 93 | 1014.1 |
| 20260510022333 | 57 | 317 | 0.0 | 0.0 | 0.04 | 1.89 | 0.01 | 93 | 1014.1 |
| 20260510021840 | 57 | 317 | 0.0 | 0.0 | 0.04 | 1.89 | 0.01 | 93 | 1014.1 |
| 20260510021350 | 58 | 317 | 0.0 | 0.0 | 0.04 | 1.89 | 0.01 | 93 | 1014.2 |
| 20260510020833 | 58 | 317 | 0.0 | 0.0 | 0.04 | 1.89 | 0.01 | 93 | 1014.2 |
| 20260510020344 | 58 | 317 | 0.0 | 0.0 | 0.00 | 1.85 | 0.00 | 93 | 1014.2 |
| 20260510015843 | 58 | 317 | 0.0 | 0.0 | 0.00 | 1.85 | 0.00 | 93 | 1014.2 |
| 20260510015336 | 58 | 317 | 0.0 | 0.0 | 0.00 | 1.85 | 0.00 | 93 | 1014.0 |
| 20260510014336 | 58 | 317 | 0.0 | 0.0 | 0.00 | 1.85 | 0.00 | 93 | 1014.3 |
| 20260510013842 | 58 | 317 | 0.0 | 0.0 | 0.00 | 1.85 | 0.00 | 93 | 1014.3 |
| 20260510013333 | 58 | 317 | 0.0 | 0.0 | 0.00 | 1.85 | 0.00 | 93 | 1014.3 |
| 20260510012839 | 58 | 317 | 0.0 | 0.0 | 0.00 | 1.85 | 0.00 | 93 | 1014.3 |
| 20260510012330 | 58 | 317 | 0.0 | 0.0 | 0.00 | 1.85 | 0.00 | 93 | 1014.4 |
| 20260510011838 | 58 | 317 | 0.0 | 0.0 | 0.00 | 1.85 | 0.00 | 93 | 1014.5 |
| 20260510011350 | 58 | 317 | 0.0 | 0.0 | 0.00 | 1.85 | 0.00 | 93 | 1014.4 |
| 20260510010836 | 58 | 317 | 0.0 | 0.0 | 0.00 | 1.85 | 0.00 | 93 | 1014.5 |
| 20260510010347 | 58 | 317 | 0.0 | 0.0 | 0.00 | 1.85 | 0.00 | 93 | 1014.4 |
| 20260510005838 | 58 | 317 | 0.0 | 0.0 | 0.00 | 1.85 | 0.00 | 93 | 1014.4 |
| 20260510004838 | 58 | 317 | 0.0 | 0.0 | 0.00 | 1.85 | 0.00 | 94 | 1014.7 |
| 20260510002841 | 58 | 317 | 0.0 | 0.0 | 0.00 | 1.85 | 0.00 | 94 | 1014.7 |
| 20260510002333 | 58 | 317 | 0.0 | 0.0 | 0.00 | 1.85 | 0.00 | 94 | 1014.8 |
| 20260510001832 | 58 | 317 | 0.0 | 0.0 | 0.00 | 1.85 | 0.00 | 94 | 1014.7 |
| 20260510000832 | 58 | 317 | 0.0 | 0.0 | 0.00 | 1.85 | 0.00 | 94 | 1014.8 |
| 20260510000343 | 58 | 317 | 0.0 | 0.0 | 0.00 | 1.85 | 0.00 | 94 | 1014.9 |
| 20260509235840 | 58 | 317 | 0.0 | 0.0 | 0.00 | 1.85 | 0.00 | 94 | 1015.0 |
| 20260509235333 | 58 | 317 | 0.0 | 0.0 | 0.00 | 1.85 | 0.00 | 94 | 1015.0 |
| 20260509234332 | 58 | 317 | 0.0 | 0.0 | 0.00 | 1.85 | 0.00 | 94 | 1014.9 |
| 20260509233839 | 58 | 317 | 0.0 | 0.0 | 0.00 | 1.85 | 0.00 | 94 | 1014.9 |
| 20260509233350 | 58 | 317 | 0.0 | 0.0 | 0.00 | 1.85 | 0.00 | 94 | 1014.9 |
| 20260509232833 | 58 | 317 | 0.0 | 0.0 | 0.00 | 1.85 | 0.00 | 94 | 1014.9 |
| 20260509232329 | 58 | 317 | 0.0 | 0.0 | 0.00 | 1.85 | 0.00 | 94 | 1015.0 |
| 20260509231838 | 58 | 317 | 0.0 | 0.0 | 0.00 | 1.85 | 0.00 | 93 | 1015.0 |
| 20260509231329 | 58 | 317 | 0.0 | 0.0 | 0.00 | 1.85 | 0.00 | 93 | 1015.1 |
| 20260509230835 | 59 | 317 | 0.0 | 0.0 | 0.00 | 1.85 | 0.00 | 93 | 1015.1 |
| 20260509230330 | 59 | 317 | 0.0 | 0.0 | 0.00 | 1.85 | 0.00 | 93 | 1015.1 |
| 20260509225845 | 59 | 317 | 0.0 | 0.0 | 0.00 | 1.85 | 0.00 | 93 | 1015.2 |
| 20260509224846 | 59 | 317 | 0.0 | 0.0 | 0.00 | 1.85 | 0.00 | 93 | 1015.2 |
| 20260509224336 | 59 | 317 | 0.0 | 0.0 | 0.00 | 1.85 | 0.00 | 93 | 1015.2 |
| 20260509223840 | 59 | 317 | 0.0 | 0.0 | 0.00 | 1.85 | 0.00 | 93 | 1015.2 |
| 20260509223331 | 59 | 317 | 0.0 | 0.0 | 0.00 | 1.85 | 0.00 | 93 | 1015.2 |
| 20260509222836 | 59 | 317 | 0.0 | 0.0 | 0.00 | 1.85 | 0.00 | 93 | 1015.2 |
| 20260509222330 | 59 | 317 | 0.0 | 0.0 | 0.00 | 1.85 | 0.00 | 93 | 1015.1 |
| 20260509221330 | 59 | 317 | 0.0 | 0.0 | 0.00 | 1.85 | 0.00 | 93 | 1015.1 |
| 20260509220348 | 59 | 317 | 0.0 | 0.0 | 0.00 | 1.85 | 0.00 | 93 | 1015.1 |
| 20260509215333 | 59 | 317 | 0.0 | 0.0 | 0.00 | 1.85 | 0.37 | 93 | 1015.1 |
| 20260509214838 | 59 | 317 | 0.0 | 0.0 | 0.00 | 1.85 | 0.37 | 93 | 1015.1 |
| 20260509214331 | 59 | 317 | 0.0 | 0.0 | 0.00 | 1.85 | 0.37 | 93 | 1015.1 |
| 20260509213334 | 59 | 317 | 0.0 | 0.0 | 0.00 | 1.85 | 0.37 | 93 | 1015.3 |
| 20260509212840 | 59 | 317 | 0.0 | 0.0 | 0.00 | 1.85 | 0.37 | 93 | 1015.3 |
| 20260509212332 | 59 | 317 | 0.0 | 0.0 | 0.00 | 1.85 | 0.37 | 93 | 1015.3 |
| 20260509211838 | 59 | 317 | 0.0 | 0.0 | 0.00 | 1.85 | 0.37 | 93 | 1015.2 |
| 20260509211329 | 59 | 317 | 0.0 | 0.0 | 0.00 | 1.85 | 0.37 | 92 | 1015.2 |
| 20260509210329 | 59 | 317 | 0.0 | 0.0 | 0.00 | 1.85 | 0.37 | 93 | 1015.3 |
| 20260509205845 | 59 | 317 | 0.0 | 0.0 | 0.00 | 1.85 | 0.37 | 92 | 1015.2 |
| 20260509205338 | 59 | 317 | 0.0 | 0.0 | 0.00 | 1.85 | 0.37 | 92 | 1015.2 |
| 20260509204843 | 59 | 317 | 0.0 | 0.0 | 0.00 | 1.85 | 0.37 | 92 | 1015.2 |
| 20260509203844 | 59 | 317 | 0.0 | 0.0 | 0.00 | 1.85 | 0.37 | 92 | 1015.0 |
| 20260509203336 | 59 | 317 | 0.0 | 0.0 | 0.00 | 1.85 | 0.37 | 92 | 1014.9 |
| 20260509202842 | 59 | 317 | 0.0 | 0.0 | 0.00 | 1.85 | 0.37 | 92 | 1014.8 |
| 20260509202333 | 59 | 317 | 0.0 | 0.0 | 0.00 | 1.85 | 0.37 | 92 | 1014.8 |
| 20260509201837 | 59 | 317 | 0.0 | 0.0 | 0.00 | 1.85 | 0.37 | 92 | 1014.8 |
| 20260509201329 | 59 | 317 | 0.0 | 0.0 | 0.00 | 1.85 | 0.37 | 91 | 1014.8 |
| 20260509200831 | 59 | 317 | 0.0 | 0.0 | 0.00 | 1.85 | 0.37 | 91 | 1014.8 |
| 20260509200342 | 59 | 318 | 0.0 | 0.0 | 0.00 | 1.85 | 0.37 | 91 | 1014.7 |
| 20260509195333 | 60 | 35 | 0.0 | 0.0 | 0.00 | 1.85 | 0.37 | 91 | 1014.4 |
| 20260509194838 | 60 | 35 | 0.0 | 0.0 | 0.00 | 1.85 | 0.37 | 91 | 1014.3 |
| 20260509193836 | 60 | 35 | 0.0 | 0.0 | 0.00 | 1.85 | 0.37 | 90 | 1014.0 |
| 20260509193329 | 60 | 35 | 0.0 | 0.0 | 0.00 | 1.85 | 0.37 | 90 | 1014.0 |
| 20260509192833 | 60 | 35 | 0.0 | 0.0 | 0.00 | 1.85 | 0.37 | 90 | 1013.9 |
| 20260509192343 | 61 | 35 | 0.0 | 0.0 | 0.00 | 1.85 | 0.37 | 90 | 1013.8 |
| 20260509191832 | 61 | 35 | 0.0 | 0.0 | 0.00 | 1.85 | 0.37 | 90 | 1013.8 |
| 20260509191343 | 61 | 35 | 0.0 | 0.0 | 0.00 | 1.85 | 0.37 | 90 | 1013.7 |
| 20260509190829 | 61 | 35 | 0.0 | 0.0 | 0.00 | 1.85 | 0.37 | 89 | 1013.6 |
| 20260509190341 | 61 | 35 | 0.0 | 0.0 | 0.00 | 1.85 | 0.37 | 90 | 1013.4 |
| 20260509185838 | 61 | 35 | 0.0 | 0.0 | 0.00 | 1.85 | 0.37 | 90 | 1013.4 |
| 20260509185335 | 61 | 35 | 0.0 | 0.0 | 0.00 | 1.85 | 0.37 | 89 | 1013.3 |
| 20260509184842 | 61 | 35 | 0.0 | 0.0 | 0.00 | 1.85 | 0.37 | 89 | 1013.3 |
| 20260509184332 | 62 | 35 | 0.0 | 0.0 | 0.00 | 1.85 | 0.37 | 89 | 1013.3 |
| 20260509183837 | 62 | 35 | 0.0 | 0.0 | 0.00 | 1.85 | 0.37 | 89 | 1013.3 |
| 20260509182836 | 62 | 35 | 0.0 | 0.0 | 0.00 | 1.85 | 0.37 | 89 | 1013.4 |
| 20260509180838 | 62 | 35 | 0.0 | 0.0 | 0.00 | 1.85 | 0.37 | 89 | 1013.1 |
| 20260509180330 | 62 | 34 | 0.0 | 0.0 | 0.00 | 1.85 | 0.37 | 89 | 1013.1 |
| 20260509175847 | 62 | 34 | 0.0 | 0.0 | 0.00 | 1.85 | 0.37 | 89 | 1013.0 |
| 20260509175340 | 62 | 34 | 0.0 | 0.0 | 0.00 | 1.85 | 0.37 | 88 | 1013.0 |
| 20260509174845 | 62 | 34 | 0.0 | 1.7 | 0.00 | 1.85 | 0.37 | 89 | 1013.0 |
| 20260509174337 | 62 | 35 | 0.0 | 2.6 | 0.00 | 1.85 | 0.37 | 89 | 1012.9 |
| 20260509173844 | 62 | 35 | 0.9 | 5.2 | 0.00 | 1.85 | 0.37 | 89 | 1012.9 |
| 20260509173333 | 62 | 34 | 0.9 | 5.2 | 0.00 | 1.85 | 0.37 | 89 | 1012.8 |
| 20260509172837 | 62 | 52 | 0.9 | 3.5 | 0.00 | 1.85 | 0.37 | 88 | 1012.8 |
| 20260509172331 | 62 | 57 | 1.7 | 3.5 | 0.00 | 1.85 | 0.37 | 88 | 1012.7 |
| 20260509170838 | 62 | 48 | 0.0 | 0.0 | 0.00 | 1.85 | 0.37 | 89 | 1012.7 |
| 20260509170331 | 62 | 57 | 0.0 | 2.6 | 0.00 | 1.85 | 0.37 | 89 | 1012.7 |
| 20260509165339 | 62 | 28 | 0.0 | 2.6 | 0.00 | 1.85 | 0.37 | 90 | 1012.5 |
| 20260509164340 | 62 | 40 | 0.0 | 2.6 | 0.00 | 1.85 | 0.37 | 91 | 1012.5 |
| 20260509163342 | 61 | 44 | 0.9 | 4.3 | 0.00 | 1.85 | 0.37 | 91 | 1012.4 |
| 20260509162848 | 61 | 44 | 1.7 | 4.3 | 0.00 | 1.85 | 0.37 | 91 | 1012.4 |
| 20260509162338 | 61 | 34 | 0.9 | 4.3 | 0.00 | 1.85 | 0.37 | 92 | 1012.4 |
| 20260509161844 | 61 | 65 | 1.7 | 5.2 | 0.00 | 1.85 | 0.37 | 93 | 1012.3 |
| 20260509161335 | 60 | 59 | 1.7 | 8.7 | 0.00 | 1.85 | 0.37 | 93 | 1012.3 |
| 20260509160840 | 60 | 28 | 2.6 | 8.7 | 0.00 | 1.85 | 0.37 | 93 | 1012.3 |
| 20260509160331 | 61 | 45 | 2.6 | 6.1 | 0.00 | 1.85 | 0.37 | 93 | 1012.2 |
| 20260509155843 | 60 | 48 | 3.5 | 7.0 | 0.00 | 1.85 | 0.37 | 94 | 1012.1 |
| 20260509155334 | 60 | 63 | 2.6 | 9.6 | 0.04 | 1.85 | 0.37 | 94 | 1012.2 |
| 20260509154839 | 60 | 30 | 5.2 | 9.6 | 0.04 | 1.85 | 0.37 | 94 | 1012.0 |
| 20260509154331 | 60 | 47 | 3.5 | 7.8 | 0.04 | 1.85 | 0.37 | 94 | 1011.9 |
| 20260509153838 | 61 | 30 | 2.6 | 9.6 | 0.04 | 1.85 | 0.37 | 94 | 1011.7 |
| 20260509153330 | 61 | 26 | 2.6 | 10.4 | 0.08 | 1.85 | 0.37 | 94 | 1011.6 |
| 20260509152834 | 61 | 78 | 6.1 | 10.4 | 0.08 | 1.85 | 0.37 | 93 | 1011.5 |
| 20260509152346 | 61 | 65 | 5.2 | 10.4 | 0.12 | 1.85 | 0.37 | 93 | 1011.9 |
| 20260509151832 | 62 | 69 | 4.3 | 7.0 | 0.20 | 1.85 | 0.37 | 94 | 1012.5 |
| 20260509151345 | 62 | 82 | 2.6 | 4.3 | 0.31 | 1.85 | 0.37 | 94 | 1012.9 |
| 20260509150832 | 62 | 53 | 0.9 | 2.6 | 0.43 | 1.85 | 0.37 | 94 | 1013.1 |
| 20260509145844 | 62 | 275 | 0.0 | 0.9 | 0.59 | 1.85 | 0.37 | 94 | 1013.5 |
| 20260509145334 | 62 | 275 | 0.0 | 0.9 | 0.59 | 1.81 | 0.36 | 93 | 1013.7 |
| 20260509144841 | 62 | 275 | 0.0 | 1.7 | 0.63 | 1.81 | 0.36 | 93 | 1013.8 |
| 20260509144331 | 62 | 275 | 0.9 | 1.7 | 0.67 | 1.81 | 0.36 | 93 | 1013.8 |
| 20260509143839 | 62 | 279 | 0.0 | 1.7 | 0.67 | 1.81 | 0.36 | 93 | 1013.8 |
| 20260509143331 | 61 | 278 | 0.0 | 1.7 | 0.67 | 1.77 | 0.35 | 93 | 1013.8 |
| 20260509142837 | 62 | 277 | 0.9 | 1.7 | 0.71 | 1.77 | 0.35 | 93 | 1013.9 |
| 20260509142332 | 62 | 214 | 0.0 | 0.9 | 0.67 | 1.69 | 0.34 | 93 | 1014.0 |
| 20260509141330 | 62 | 213 | 0.0 | 0.9 | 0.51 | 1.54 | 0.31 | 92 | 1014.3 |
| 20260509140836 | 62 | 213 | 0.0 | 2.6 | 0.39 | 1.42 | 0.28 | 92 | 1014.4 |
| 20260509140346 | 62 | 213 | 0.9 | 6.1 | 0.31 | 1.34 | 0.27 | 92 | 1014.5 |
| 20260509135838 | 62 | 213 | 3.5 | 6.1 | 0.24 | 1.26 | 0.25 | 92 | 1014.6 |
| 20260509134840 | 62 | 217 | 0.9 | 3.5 | 0.16 | 1.18 | 0.24 | 91 | 1014.4 |
| 20260509134333 | 62 | 269 | 0.9 | 1.7 | 0.12 | 1.14 | 0.23 | 91 | 1014.3 |
| 20260509133840 | 62 | 92 | 0.0 | 0.9 | 0.08 | 1.10 | 0.22 | 91 | 1014.1 |
| 20260509133331 | 62 | 92 | 0.0 | 0.9 | 0.08 | 1.10 | 0.22 | 91 | 1014.1 |
| 20260509132838 | 62 | 92 | 0.0 | 0.9 | 0.04 | 1.06 | 0.21 | 91 | 1014.0 |
| 20260509132332 | 62 | 92 | 0.0 | 2.6 | 0.04 | 1.02 | 0.20 | 91 | 1013.8 |
| 20260509131837 | 62 | 92 | 0.0 | 2.6 | 0.04 | 1.02 | 0.20 | 91 | 1013.6 |
| 20260509130836 | 62 | 63 | 0.9 | 1.7 | 0.12 | 1.02 | 0.20 | 91 | 1013.3 |
| 20260509130346 | 62 | 59 | 0.0 | 2.6 | 0.16 | 1.02 | 0.20 | 91 | 1013.1 |
| 20260509125840 | 61 | 58 | 0.9 | 5.2 | 0.24 | 1.02 | 0.20 | 92 | 1012.8 |
| 20260509124332 | 61 | 7 | 5.2 | 10.4 | 0.47 | 1.02 | 0.20 | 92 | 1012.0 |
| 20260509123837 | 61 | 7 | 7.0 | 10.4 | 0.55 | 1.02 | 0.20 | 93 | 1011.9 |
| 20260509123348 | 61 | 35 | 4.3 | 9.6 | 0.67 | 1.02 | 0.20 | 92 | 1012.3 |
| 20260509122832 | 61 | 30 | 4.3 | 11.3 | 0.75 | 1.02 | 0.20 | 93 | 1012.7 |
| 20260509122343 | 61 | 32 | 6.1 | 11.3 | 0.75 | 0.98 | 0.20 | 93 | 1012.8 |
| 20260509121828 | 61 | 44 | 6.1 | 10.4 | 0.79 | 0.98 | 0.20 | 93 | 1013.0 |
| 20260509121340 | 61 | 36 | 5.2 | 13.0 | 0.79 | 0.94 | 0.19 | 93 | 1013.1 |
| 20260509120846 | 61 | 60 | 4.3 | 13.0 | 0.79 | 0.91 | 0.18 | 93 | 1013.0 |
| 20260509120339 | 61 | 31 | 4.3 | 10.4 | 0.79 | 0.87 | 0.17 | 93 | 1012.9 |
| 20260509115837 | 61 | 53 | 2.6 | 10.4 | 0.71 | 0.79 | 0.16 | 92 | 1012.8 |
| 20260509115330 | 62 | 11 | 3.5 | 10.4 | 0.67 | 0.71 | 0.14 | 92 | 1012.9 |
| 20260509114834 | 62 | 26 | 3.5 | 7.8 | 0.55 | 0.59 | 0.12 | 92 | 1013.3 |
| 20260509114345 | 62 | 23 | 4.3 | 7.0 | 0.55 | 0.55 | 0.11 | 92 | 1013.5 |
| 20260509113848 | 62 | 41 | 2.6 | 7.0 | 0.47 | 0.47 | 0.09 | 92 | 1013.7 |